[[{"header":{"parameterUnit":"m.s-1","parameterCategory":1,"la1":30.2991,"la2":30.254,"lo1":-89.0895,"lo2":-89.0444,"dy":0.0017,"dx":0.0017,"nx":28,"ny":28,"refTime":"2025-09-19T09:00:00:Z","depth":0,"parameterNumber":2,"parameterNumberName":"U-component_of_WINDS"},"data":[0,0,0,0,0,0,0,0,0,0,0,0,0,0,0,0,0,0,0,0,0,0,0,0,0,0,0,0,0,0,0,0,0,0,0,0,0,0,0,0,0,0,0,0,0,0,0,0,0,0,0,0,0,0,0,0,0,0,3.6547,3.6548,0,3.6631,3.6632,3.6632,3.6567,3.6564,3.6561,3.6558,3.6641,3.6646,3.6651,0,0,0,0,0,0,0,0,0,0,0,0,0,3.6331,3.6335,3.6547,3.6548,3.6549,3.663,3.6632,3.6633,3.6567,3.6564,3.656,3.6557,3.664,3.6646,3.6651,0,0,0,0,0,0,0,0,0,0,0,0,0,3.642,3.6336,3.6547,3.6526,3.6525,3.663,3.6632,3.6633,3.6568,3.6564,3.6559,3.6555,3.6638,3.6645,3.6652,3.6781,0,0,3.6674,3.6677,0,0,0,0,0,0,0,0,3.6415,3.6428,3.6528,3.6528,3.6527,3.6584,3.6586,3.6683,3.6569,3.6552,3.6558,3.6553,3.6626,3.6634,3.6658,3.6785,3.6789,3.6675,3.6679,3.6682,3.6684,0,0,0,0,0,0,0,3.6409,3.6424,3.658,3.653,3.6529,3.6513,3.6521,3.6604,3.6611,3.6553,3.6548,3.6559,3.6624,3.6652,3.666,3.679,3.6675,3.6681,3.6686,3.6688,3.7028,3.7032,0,0,0,0,0,0,3.6405,3.642,3.6577,3.6583,3.646,3.652,3.6529,3.657,3.661,3.6612,3.6563,3.6556,3.6641,3.6651,3.6662,3.6817,3.6682,3.6689,3.6693,3.7023,3.7029,3.7034,0,0,0,0,0,0,3.6401,3.642,3.6574,3.65,3.6518,3.6528,3.6575,3.6574,3.6601,3.6618,3.6618,3.6589,3.6638,3.6652,3.6753,3.6819,3.6692,3.6699,3.7017,3.7025,3.7031,3.7126,0,0,0,0,0,0,3.6395,3.6419,3.6468,3.6502,3.6523,3.6663,3.6579,3.6578,3.6614,3.6606,3.6643,3.6645,3.6636,3.6742,3.676,3.6826,3.6705,3.7011,3.7021,3.7029,3.7117,3.7135,3.7151,0,0,0,0,0,3.6387,3.6491,3.6471,3.649,3.6584,3.6667,3.6679,3.6668,3.6619,3.6669,3.668,3.6643,3.6809,3.6753,3.6772,3.6842,3.7007,3.7018,3.7028,3.7109,3.7132,3.7151,0,0,0,0,0,0,3.6463,3.6494,3.6473,3.659,3.6627,3.6656,3.6718,3.6692,3.6742,3.6732,3.6716,3.6725,3.683,3.6846,3.6783,3.697,3.69,3.6915,3.6955,3.6977,3.6993,3.6987,3.6711,0,0,0,0,0,3.6494,3.6559,3.6583,3.6684,3.6703,3.6708,3.6743,3.6732,3.6769,3.6784,3.6802,3.6838,3.6899,3.6938,3.6995,3.7119,3.7127,3.7177,3.7194,3.7208,3.7221,3.7289,3.7311,3.7068,3.7068,3.7068,0,0,3.6557,3.6582,3.6624,3.67,3.6727,3.6794,3.6721,3.6795,3.6846,3.6794,3.6891,3.6906,3.6945,3.7059,3.7109,3.7075,3.729,3.7221,3.7232,3.7238,3.7302,3.7325,3.7345,3.7075,3.7074,3.7073,0,0,3.6707,3.6733,3.6821,3.685,3.6892,3.6894,3.6916,3.695,3.6958,3.7054,3.7018,3.7077,3.7181,3.7211,3.724,3.7404,3.7373,3.7423,3.7512,3.7578,3.7597,3.7614,3.7673,3.7694,3.7436,3.7436,3.7436,0,3.678,3.6882,3.6869,3.6947,3.6981,3.6939,3.7028,3.7057,3.7115,3.714,3.7101,3.7231,3.7255,3.7375,3.7416,3.7441,3.7464,3.7418,3.7596,3.7613,3.7628,3.7684,3.7706,3.7442,3.7441,3.7441,3.744,0,3.697,3.7041,3.7106,3.7165,3.7207,3.729,3.729,3.7334,3.7319,3.7326,3.7425,3.7452,3.7514,3.7542,3.7528,3.7661,3.7638,3.7598,3.7528,3.7658,3.771,3.7731,3.745,3.7448,3.7447,3.7445,0,0,3.7169,3.7221,3.7245,3.7272,3.7316,3.7371,3.7452,3.7513,3.7552,3.7594,3.7661,3.7751,3.7715,3.7748,3.7737,3.7795,3.7924,3.7748,3.7749,3.778,3.8073,3.8103,3.8128,3.7904,3.7908,3.7911,3.807,0,3.7321,3.7464,3.7455,3.7589,3.7655,3.7617,3.7688,3.7723,3.7732,3.7788,3.7798,3.7862,3.7809,3.7829,3.7885,3.7897,3.7983,3.7885,3.7967,3.797,3.7958,3.8155,3.8187,3.8335,3.809,3.8094,3.8096,0,3.7518,3.7568,3.7709,3.7745,3.7772,3.7836,3.7892,3.7947,3.7986,3.7988,3.8027,3.8006,3.8089,3.8017,3.813,3.8064,3.8097,3.8108,3.8114,3.8121,3.8041,3.8168,3.8382,3.8405,3.8128,3.8126,3.8123,0,3.765,3.7753,3.785,3.7874,3.7918,3.7964,3.7985,3.802,3.8058,3.8107,3.8131,3.8189,3.8221,3.8266,3.8262,3.821,3.8377,3.8305,3.8381,3.8382,3.8417,3.8415,3.8641,3.8439,3.8439,3.8439,3.8438,0,3.7821,3.7909,3.791,3.797,3.8067,3.8057,3.8153,3.8169,3.8201,3.8263,3.8233,3.8292,3.8284,3.8343,3.834,3.8435,3.8449,3.8453,3.8452,3.8456,3.8456,3.8477,3.8467,3.8445,3.8443,3.8442,3.8441,0,3.7984,3.7989,3.8093,3.8127,3.8137,3.8208,3.8236,3.8293,3.83,3.838,3.8398,3.8409,3.8477,3.8478,3.8555,3.8554,3.8669,3.8656,3.8657,3.8654,3.873,3.8723,3.8977,3.901,3.8787,3.879,3.8791,0,3.8093,3.816,3.8202,3.8242,3.8265,3.833,3.8369,3.8362,3.8404,3.8454,3.8505,3.8571,3.8623,3.8734,3.8749,3.8808,3.8796,3.8881,3.8805,3.8808,3.8798,3.8794,3.88,3.8896,3.8898,3.89,3.8902,0,3.8286,3.8286,3.8343,3.8403,3.845,3.8496,3.8539,3.8573,3.8571,3.8619,3.8689,3.873,3.881,3.8876,3.8934,3.8954,3.8929,3.8926,3.8947,3.8952,3.895,3.8952,3.8697,3.892,3.8918,3.8917,3.8916,3.8915,3.8426,3.8484,3.8523,3.8588,3.862,3.8661,3.8716,3.8731,3.8789,3.8855,3.8847,3.8925,3.8963,3.9039,3.9064,3.9125,3.9096,3.9126,3.9133,3.9141,3.9149,3.894,3.9136,3.9135,3.9135,3.9134,3.9134,0,3.8618,3.8641,3.8702,3.8763,3.8815,3.8786,3.8832,3.8877,3.8947,3.8985,3.9038,3.9119,3.9183,3.9203,3.9265,3.931,3.93,3.9327,3.9323,3.9328,3.9172,3.9148,3.9334,3.9334,3.9334,3.9334,3.9334,3.9334,3.8724,3.8821,3.8825,3.8937,3.896,3.9037,3.9066,3.9103,3.9134,3.9226,3.9279,3.9293,3.9324,3.9388,3.9446,3.945,3.9474,3.9506,3.9506,3.9359,3.9339,3.932,3.9297,3.9512,3.9512,3.9657,3.9658,3.9659]},{"header":{"parameterUnit":"m.s-1","parameterCategory":1,"la1":30.2991,"la2":30.254,"lo1":-89.0895,"lo2":-89.0444,"dy":0.0017,"dx":0.0017,"nx":28,"ny":28,"refTime":"2025-09-19T09:00:00:Z","depth":0,"parameterNumber":3,"parameterNumberName":"V-component_of_WINDS"},"data":[0,0,0,0,0,0,0,0,0,0,0,0,0,0,0,0,0,0,0,0,0,0,0,0,0,0,0,0,0,0,0,0,0,0,0,0,0,0,0,0,0,0,0,0,0,0,0,0,0,0,0,0,0,0,0,0,0,0,-1.1053,-1.1053,0,-1.108,-1.108,-1.108,-1.1085,-1.1085,-1.1084,-1.1084,-1.1112,-1.1112,-1.1113,0,0,0,0,0,0,0,0,0,0,0,0,0,-1.1004,-1.1005,-1.1053,-1.1053,-1.1053,-1.108,-1.108,-1.1081,-1.1085,-1.1084,-1.1084,-1.1084,-1.1111,-1.1112,-1.1113,0,0,0,0,0,0,0,0,0,0,0,0,0,-1.1027,-1.1005,-1.1053,-1.1059,-1.1059,-1.108,-1.108,-1.1081,-1.1085,-1.1084,-1.1084,-1.1084,-1.1111,-1.1112,-1.1114,-1.113,0,0,-1.1118,-1.1119,0,0,0,0,0,0,0,0,-1.1026,-1.1029,-1.1057,-1.1058,-1.1059,-1.1079,-1.1073,-1.1097,-1.1085,-1.1075,-1.1084,-1.1084,-1.1101,-1.1103,-1.1109,-1.1131,-1.1132,-1.1118,-1.1119,-1.112,-1.112,0,0,0,0,0,0,0,-1.1024,-1.1028,-1.1063,-1.1058,-1.1059,-1.106,-1.1063,-1.1078,-1.109,-1.1076,-1.1076,-1.108,-1.1101,-1.1108,-1.111,-1.1133,-1.1118,-1.1119,-1.112,-1.1121,-1.1168,-1.1169,0,0,0,0,0,0,-1.1022,-1.1027,-1.1063,-1.1064,-1.1041,-1.1061,-1.1064,-1.1073,-1.109,-1.1092,-1.108,-1.108,-1.1105,-1.1108,-1.1111,-1.113,-1.112,-1.1121,-1.1122,-1.1168,-1.1169,-1.1169,0,0,0,0,0,0,-1.1021,-1.1025,-1.1061,-1.1046,-1.105,-1.1062,-1.1072,-1.1073,-1.108,-1.1092,-1.1095,-1.1084,-1.1105,-1.1109,-1.1125,-1.1131,-1.1122,-1.1123,-1.1168,-1.1168,-1.1169,-1.1169,0,0,0,0,0,0,-1.1019,-1.1024,-1.1031,-1.1046,-1.1051,-1.1075,-1.1072,-1.1074,-1.1082,-1.1082,-1.1097,-1.1099,-1.1105,-1.1123,-1.1126,-1.1133,-1.1124,-1.1167,-1.1168,-1.1169,-1.1168,-1.1169,-1.117,0,0,0,0,0,-1.1017,-1.103,-1.1031,-1.1035,-1.1059,-1.1076,-1.1079,-1.1086,-1.1083,-1.1089,-1.1097,-1.1099,-1.113,-1.1124,-1.1128,-1.1135,-1.1167,-1.1168,-1.1169,-1.1168,-1.1169,-1.117,0,0,0,0,0,0,-1.1015,-1.1032,-1.1033,-1.1051,-1.1062,-1.1076,-1.1085,-1.1087,-1.1099,-1.1098,-1.1106,-1.1109,-1.1125,-1.1132,-1.1125,-1.1151,-1.1148,-1.115,-1.1146,-1.1148,-1.1148,-1.1146,-1.1125,0,0,0,0,0,-1.1017,-1.1029,-1.1043,-1.1057,-1.1062,-1.1072,-1.108,-1.1084,-1.1096,-1.11,-1.111,-1.1121,-1.1133,-1.1141,-1.1153,-1.117,-1.1173,-1.1177,-1.1177,-1.1178,-1.1179,-1.1188,-1.119,-1.1172,-1.1172,-1.1172,0,0,-1.102,-1.1031,-1.1038,-1.1057,-1.1066,-1.1078,-1.1076,-1.1089,-1.1098,-1.1102,-1.1118,-1.1125,-1.1138,-1.1154,-1.1162,-1.1161,-1.1185,-1.1179,-1.118,-1.1181,-1.1189,-1.1191,-1.1193,-1.1173,-1.1172,-1.1172,0,0,-1.1032,-1.1042,-1.1054,-1.1063,-1.1077,-1.1084,-1.1087,-1.1101,-1.1106,-1.1122,-1.1125,-1.1135,-1.1156,-1.1165,-1.1172,-1.1188,-1.1189,-1.1191,-1.1196,-1.1205,-1.1206,-1.1207,-1.1212,-1.1214,-1.1193,-1.1193,-1.1193,0,-1.1035,-1.1053,-1.106,-1.1073,-1.1081,-1.1086,-1.1098,-1.1106,-1.1123,-1.1128,-1.1127,-1.1153,-1.1162,-1.118,-1.1184,-1.119,-1.1193,-1.1189,-1.1205,-1.1207,-1.1208,-1.1213,-1.1215,-1.1193,-1.1193,-1.1193,-1.1193,0,-1.1055,-1.1068,-1.1076,-1.1092,-1.1101,-1.1114,-1.1123,-1.1131,-1.1134,-1.1141,-1.1157,-1.1168,-1.1182,-1.1187,-1.1191,-1.1206,-1.1204,-1.1204,-1.12,-1.121,-1.1214,-1.1216,-1.1193,-1.1193,-1.1193,-1.1193,0,0,-1.1066,-1.1086,-1.1089,-1.1096,-1.1111,-1.1121,-1.1134,-1.1147,-1.1154,-1.1165,-1.1176,-1.1193,-1.1193,-1.1201,-1.1206,-1.1214,-1.1224,-1.1213,-1.1213,-1.1214,-1.1241,-1.124,-1.1242,-1.1226,-1.1226,-1.1226,-1.1239,0,-1.1079,-1.1102,-1.1109,-1.1128,-1.1139,-1.1143,-1.1154,-1.1165,-1.1171,-1.1182,-1.1189,-1.1202,-1.1201,-1.1206,-1.1213,-1.1221,-1.123,-1.1221,-1.1235,-1.1235,-1.1231,-1.1245,-1.1244,-1.1256,-1.1241,-1.1242,-1.1242,0,-1.1098,-1.1109,-1.1129,-1.1142,-1.1148,-1.1157,-1.117,-1.118,-1.1192,-1.1197,-1.1206,-1.121,-1.1223,-1.1219,-1.1237,-1.123,-1.1237,-1.1242,-1.1242,-1.1243,-1.1239,-1.1245,-1.126,-1.1262,-1.1245,-1.1245,-1.1244,0,-1.1103,-1.1123,-1.1138,-1.1144,-1.116,-1.1167,-1.1174,-1.1185,-1.1193,-1.1204,-1.1209,-1.1222,-1.1229,-1.1239,-1.1246,-1.1243,-1.1263,-1.126,-1.1266,-1.1266,-1.127,-1.1269,-1.1285,-1.1275,-1.1275,-1.1275,-1.1275,0,-1.1116,-1.1128,-1.114,-1.1149,-1.1162,-1.117,-1.1183,-1.119,-1.12,-1.121,-1.1215,-1.1225,-1.1234,-1.1245,-1.125,-1.1264,-1.1267,-1.1271,-1.1272,-1.127,-1.1269,-1.1273,-1.1273,-1.1275,-1.1275,-1.1275,-1.1275,0,-1.1124,-1.1133,-1.1148,-1.1162,-1.1166,-1.1175,-1.1187,-1.1196,-1.1203,-1.1215,-1.1219,-1.123,-1.1242,-1.1251,-1.1267,-1.1271,-1.1285,-1.1287,-1.1281,-1.1282,-1.1287,-1.1286,-1.1306,-1.1309,-1.1297,-1.1297,-1.1297,0,-1.1132,-1.1141,-1.1156,-1.1163,-1.117,-1.1181,-1.1189,-1.1197,-1.1205,-1.1219,-1.1226,-1.1239,-1.125,-1.127,-1.1279,-1.1291,-1.1292,-1.1298,-1.1294,-1.1292,-1.1292,-1.1291,-1.1291,-1.1299,-1.1299,-1.1299,-1.1299,0,-1.1144,-1.1148,-1.1159,-1.1172,-1.1181,-1.1191,-1.1202,-1.1207,-1.1217,-1.1226,-1.1239,-1.1247,-1.1264,-1.1276,-1.1289,-1.1296,-1.1299,-1.13,-1.1302,-1.13,-1.1296,-1.1298,-1.1282,-1.13,-1.13,-1.13,-1.13,-1.1299,-1.1151,-1.1159,-1.1171,-1.1183,-1.1192,-1.1202,-1.121,-1.1218,-1.1229,-1.1243,-1.1247,-1.1261,-1.1272,-1.129,-1.1297,-1.1308,-1.1307,-1.131,-1.1311,-1.1311,-1.1311,-1.1295,-1.131,-1.131,-1.131,-1.131,-1.131,0,-1.1163,-1.1171,-1.1182,-1.1197,-1.1206,-1.1208,-1.122,-1.1228,-1.1239,-1.125,-1.126,-1.1275,-1.1287,-1.1297,-1.131,-1.1316,-1.1318,-1.1319,-1.1319,-1.132,-1.1311,-1.1308,-1.1318,-1.1318,-1.1318,-1.1318,-1.1318,-1.1318,-1.1171,-1.1184,-1.119,-1.1207,-1.1215,-1.1228,-1.1235,-1.1243,-1.1252,-1.1268,-1.1278,-1.1285,-1.1295,-1.1308,-1.132,-1.1322,-1.1326,-1.1327,-1.133,-1.1322,-1.1321,-1.132,-1.1317,-1.1328,-1.1328,-1.1338,-1.1338,-1.1338]}]]